When you browse on this site, cookies collect data to enhance your experience and personalize the content and advertising you see.
Visit our Privacy Policy to learn more. By continuing to use the site, you agree to this use of cookies and data.
  • In Latvia
  • List of Countries
  • For 7 days
  • Water Temperature
  • Satellite Maps
  • Weather Map
  • Weather Widgets
  • user-avatar
    Login

    Hourly Weather La Massana

    Today, 18 July, Thursday

    Time Temperature Precipitation Wind Pressure Humidity
    00:00 +11°C° 0 mm 1 mps 611 mmHg 95%
    01:00 +10°C° 0 mm 1 mps 611 mmHg 95%
    02:00 +10°C° 0 mm 1 mps 611 mmHg 95%
    03:00 +10°C° 0 mm 1 mps 611 mmHg 95%
    04:00 +10°C° 0 mm 1 mps 611 mmHg 94%
    05:00 +11°C° 0 mm 1 mps 611 mmHg 93%
    06:00 +11°C° 0 mm 1 mps 611 mmHg 92%
    07:00 +13°C° 0 mm 1 mps 612 mmHg 85%
    08:00 +15°C° 0 mm 1 mps 613 mmHg 78%
    09:00 +16°C° 0 mm 1 mps 614 mmHg 71%
    10:00 +18°C° 0 mm 1 mps 614 mmHg 68%
    11:00 +18°C° 0 mm 2 mps 614 mmHg 65%
    12:00 +19°C° 0 mm 2 mps 615 mmHg 61%
    13:00 +18°C° 0.2 mm 2 mps 614 mmHg 64%
    14:00 +18°C° 0.2 mm 2 mps 614 mmHg 66%
    15:00 +19°C° 0.2 mm 1 mps 613 mmHg 68%
    16:00 +18°C° 0.2 mm 1 mps 613 mmHg 72%
    17:00 +16°C° 0.2 mm 1 mps 613 mmHg 77%
    18:00 +15°C° 0.2 mm 1 mps 613 mmHg 81%
    19:00 +14°C° 0 mm 1 mps 612 mmHg 85%
    20:00 +13°C° 0 mm 1 mps 612 mmHg 89%
    21:00 +11°C° 0 mm 1 mps 612 mmHg 93%
    22:00 +11°C° 0 mm 1 mps 612 mmHg 93%
    23:00 +11°C° 0 mm 1 mps 612 mmHg 94%

    Tomorrow, 19 July, Friday

    Time Temperature Precipitation Wind Pressure Humidity
    00:00 +9°C° 0 mm 0 mps 612 mmHg 94%
    01:00 +9°C° 0 mm 0 mps 611 mmHg 93%
    02:00 +10°C° 0 mm 1 mps 611 mmHg 92%
    03:00 +10°C° 0 mm 1 mps 611 mmHg 91%
    04:00 +11°C° 0 mm 1 mps 612 mmHg 87%
    05:00 +11°C° 0 mm 1 mps 612 mmHg 83%
    06:00 +12°C° 0 mm 1 mps 613 mmHg 79%
    07:00 +15°C° 0 mm 1 mps 614 mmHg 67%
    08:00 +18°C° 0 mm 1 mps 615 mmHg 56%
    09:00 +20°C° 0 mm 1 mps 616 mmHg 44%
    10:00 +20°C° 0 mm 2 mps 616 mmHg 41%
    11:00 +21°C° 0 mm 2 mps 616 mmHg 39%
    12:00 +24°C° 0 mm 2 mps 616 mmHg 36%
    13:00 +24°C° 0 mm 2 mps 616 mmHg 37%
    14:00 +24°C° 0 mm 2 mps 616 mmHg 37%
    15:00 +24°C° 0 mm 2 mps 615 mmHg 38%
    16:00 +23°C° 0 mm 2 mps 615 mmHg 45%
    17:00 +21°C° 0 mm 2 mps 614 mmHg 52%
    18:00 +21°C° 0 mm 1 mps 614 mmHg 59%
    19:00 +18°C° 0 mm 1 mps 613 mmHg 64%
    20:00 +15°C° 0 mm 1 mps 612 mmHg 69%
    21:00 +13°C° 0 mm 1 mps 612 mmHg 74%
    22:00 +13°C° 0 mm 1 mps 612 mmHg 72%
    23:00 +13°C° 0 mm 1 mps 612 mmHg 70%

    Day after tomorrow, 20 July, Saturday

    Time Temperature Precipitation Wind Pressure Humidity
    00:00 +13°C° 0 mm 1 mps 612 mmHg 67%
    01:00 +13°C° 0 mm 1 mps 611 mmHg 68%
    02:00 +13°C° 0 mm 1 mps 611 mmHg 69%
    03:00 +13°C° 0 mm 2 mps 611 mmHg 70%
    04:00 +14°C° 0 mm 1 mps 612 mmHg 68%
    05:00 +15°C° 0 mm 1 mps 612 mmHg 67%
    06:00 +16°C° 0 mm 1 mps 613 mmHg 65%
    07:00 +19°C° 0 mm 1 mps 614 mmHg 58%
    08:00 +20°C° 0 mm 2 mps 615 mmHg 51%
    09:00 +23°C° 0 mm 2 mps 616 mmHg 45%
    10:00 +24°C° 0 mm 2 mps 617 mmHg 42%
    11:00 +25°C° 0 mm 2 mps 617 mmHg 39%
    12:00 +26°C° 0 mm 2 mps 618 mmHg 36%
    13:00 +26°C° 0 mm 3 mps 617 mmHg 36%
    14:00 +26°C° 0 mm 3 mps 617 mmHg 36%
    15:00 +26°C° 0 mm 3 mps 617 mmHg 37%
    16:00 +25°C° 0.1 mm 2 mps 617 mmHg 44%
    17:00 +24°C° 0.1 mm 2 mps 616 mmHg 52%
    18:00 +21°C° 0.1 mm 2 mps 616 mmHg 60%
    19:00 +20°C° 0.1 mm 1 mps 616 mmHg 66%
    20:00 +18°C° 0.1 mm 1 mps 615 mmHg 73%
    21:00 +15°C° 0.1 mm 1 mps 615 mmHg 80%
    22:00 +15°C° 0 mm 1 mps 615 mmHg 79%
    23:00 +14°C° 0 mm 1 mps 615 mmHg 78%

    21 July, Sunday

    Time Temperature Precipitation Wind Pressure Humidity
    00:00 +14°C° 0 mm 1 mps 615 mmHg 76%
    01:00 +14°C° 0 mm 1 mps 615 mmHg 73%
    02:00 +14°C° 0 mm 1 mps 615 mmHg 70%
    03:00 +14°C° 0 mm 1 mps 614 mmHg 67%
    04:00 +15°C° 0 mm 1 mps 615 mmHg 65%
    05:00 +15°C° 0 mm 1 mps 615 mmHg 63%
    06:00 +16°C° 0 mm 1 mps 616 mmHg 61%
    07:00 +18°C° 0 mm 2 mps 617 mmHg 53%
    08:00 +21°C° 0 mm 2 mps 618 mmHg 45%
    09:00 +24°C° 0 mm 3 mps 619 mmHg 37%
    10:00 +25°C° 0 mm 3 mps 619 mmHg 35%
    11:00 +27°C° 0 mm 3 mps 620 mmHg 33%
    12:00 +28°C° 0 mm 3 mps 620 mmHg 32%
    13:00 +27°C° 0 mm 3 mps 620 mmHg 32%
    14:00 +27°C° 0 mm 3 mps 619 mmHg 33%
    15:00 +27°C° 0 mm 3 mps 619 mmHg 34%
    16:00 +26°C° 0 mm 2 mps 619 mmHg 40%
    17:00 +24°C° 0 mm 2 mps 618 mmHg 46%
    18:00 +23°C° 0 mm 2 mps 617 mmHg 53%
    19:00 +20°C° 0 mm 2 mps 617 mmHg 56%
    20:00 +19°C° 0 mm 1 mps 616 mmHg 60%
    21:00 +16°C° 0 mm 1 mps 616 mmHg 64%
    22:00 +16°C° 0 mm 1 mps 616 mmHg 62%
    23:00 +16°C° 0 mm 1 mps 616 mmHg 60%

    22 July, Monday

    Time Temperature Precipitation Wind Pressure Humidity
    00:00 +16°C° 0 mm 1 mps 616 mmHg 58%
    01:00 +16°C° 0 mm 1 mps 615 mmHg 54%
    02:00 +16°C° 0 mm 1 mps 615 mmHg 49%
    03:00 +15°C° 0 mm 1 mps 615 mmHg 45%
    04:00 +16°C° 0 mm 1 mps 615 mmHg 45%
    05:00 +16°C° 0 mm 1 mps 616 mmHg 45%
    06:00 +18°C° 0 mm 1 mps 616 mmHg 45%
    07:00 +21°C° 0 mm 1 mps 617 mmHg 40%
    08:00 +23°C° 0 mm 1 mps 618 mmHg 35%
    09:00 +26°C° 0 mm 1 mps 619 mmHg 29%
    10:00 +27°C° 0 mm 1 mps 620 mmHg 29%
    11:00 +27°C° 0 mm 2 mps 620 mmHg 29%
    12:00 +28°C° 0 mm 2 mps 620 mmHg 29%
    13:00 +28°C° 0 mm 2 mps 619 mmHg 30%
    14:00 +28°C° 0 mm 2 mps 619 mmHg 31%
    15:00 +28°C° 0 mm 2 mps 619 mmHg 32%
    16:00 +26°C° 0.1 mm 2 mps 618 mmHg 39%
    17:00 +25°C° 0.1 mm 1 mps 618 mmHg 46%
    18:00 +24°C° 0.1 mm 1 mps 617 mmHg 54%
    19:00 +21°C° 0.3 mm 1 mps 616 mmHg 57%
    20:00 +19°C° 0.3 mm 1 mps 616 mmHg 61%
    21:00 +16°C° 0.3 mm 1 mps 615 mmHg 64%
    22:00 +16°C° 0.1 mm 1 mps 615 mmHg 65%
    23:00 +16°C° 0.1 mm 1 mps 615 mmHg 66%

    23 July, Tuesday

    Time Temperature Precipitation Wind Pressure Humidity
    00:00 +16°C° 0.1 mm 1 mps 615 mmHg 67%
    01:00 +16°C° 0 mm 1 mps 615 mmHg 67%
    02:00 +16°C° 0 mm 1 mps 614 mmHg 67%
    03:00 +16°C° 0 mm 1 mps 614 mmHg 67%
    04:00 +16°C° 0 mm 1 mps 614 mmHg 65%
    05:00 +18°C° 0 mm 1 mps 615 mmHg 63%
    06:00 +18°C° 0 mm 1 mps 615 mmHg 61%
    07:00 +21°C° 0 mm 1 mps 616 mmHg 53%
    08:00 +24°C° 0 mm 1 mps 617 mmHg 45%
    09:00 +26°C° 0 mm 1 mps 618 mmHg 37%
    10:00 +27°C° 0 mm 1 mps 618 mmHg 35%
    11:00 +27°C° 0 mm 2 mps 618 mmHg 34%
    12:00 +28°C° 0 mm 2 mps 618 mmHg 33%
    13:00 +25°C° 1.1 mm 2 mps 616 mmHg 45%
    14:00 +21°C° 1.1 mm 3 mps 615 mmHg 56%
    15:00 +19°C° 1.1 mm 3 mps 613 mmHg 68%
    16:00 +18°C° 1.6 mm 3 mps 613 mmHg 73%
    17:00 +17°C° 1.6 mm 3 mps 612 mmHg 77%
    18:00 +14°C° 1.6 mm 3 mps 612 mmHg 82%
    19:00 +14°C° 0.1 mm 3 mps 612 mmHg 77%
    20:00 +15°C° 0.1 mm 2 mps 612 mmHg 72%
    21:00 +15°C° 0.1 mm 2 mps 613 mmHg 66%
    22:00 +15°C° 0.1 mm 2 mps 613 mmHg 66%
    23:00 +15°C° 0.1 mm 2 mps 613 mmHg 66%
    Show more